Regional Weather Roundup
Issued by NWS New Orleans/Baton Rouge, LA

Home | Current Version | Previous Version | Graphics & Text | Print | Product List | Glossary On
Versions: 1 2 3 4 5 6 7 8 9 10 11 12 13 14 15 16 17 18 19 20 21 22 23 24 25 26 27 28 29 30 31 32 33 34 35 36 37 38 39 40 41 42 43 44 45 46 47 48 49 50
441
ASUS44 KLIX 240205
RWRLIX
NEW ORLEANS REGIONAL WEATHER ROUNDUP
NATIONAL WEATHER SERVICE NEW ORLEANS LA
800 PM CST SUN NOV 23 2014

NOTE: "FAIR" INDICATES FEW OR NO CLOUDS BELOW 12,000 FEET WITH NO
      SIGNIFICANT WEATHER AND/OR OBSTRUCTIONS TO VISIBILITY.
      SKY/WX - SKY CONDITION AND SIGNIFICANT WEATHER.
      TMP - AIR TEMPERATURE.     DP    - DEWPOINT TEMPERATURE.
      RH  - RELATIVE HUMIDITY.   PRES  - PRESSURE.
      HI  - HEAT INDEX.          WCI   - WIND CHILL INDEX.

*  THESE STATIONS ARE NOT NWS OR FAA STATIONS AND ARE NOT UNDER
   NWS QUALITY CONTROL.

LAZ038-040-048-061>063-065>067-069-240300-
SOUTHEAST LOUISIANA

CITY           SKY/WX    TMP DP  RH WIND       PRES   REMARKS
N.O. AUDUBON     N/A     67  67 100 MISG        N/A
N.O. INTL ARPT PTCLDY    67  63  87 S12       29.70R
N.O. LAKEFRONT MOCLDY    69  65  86 S13       29.71R
N.O. DOWNTOWN* MOCLDY    70  63  78 S9        29.71R
SLIDELL        PTCLDY    67  63  87 S8        29.70R
BATON ROUGE    MOCLDY    70  64  81 SW17G30   29.66R
BOOTHVILLE     PTCLDY    66  66 100 S8        29.75R
BELLE CHASSE   CLOUDY    69  66  90 S9        29.70R
BOGALUSA*        N/A     65  59  79 S9        29.70R
NEW ROADS*       N/A     66  63  91 S9        29.66R
GONZALES*        N/A     68  68 100 S7        29.69R
HAMMOND*       CLEAR     66  61  82 S7        29.70R
HOUMA*         CLEAR     68  67  94 S9        29.71R
PORT FOURCHON* PTCLDY    70  68  94 S8        29.76R FOG

$$

MSZ070-080>082-240300-
SOUTHERN MISSISSIPPI

CITY           SKY/WX    TMP DP  RH WIND       PRES   REMARKS
MCCOMB         MOCLDY    64  60  87 S12       29.66R
GULFPORT       CLOUDY    66  65  96 S10G18    29.71R
BILOXI         MOCLDY    64  64 100 S15       29.72R
PASCAGOULA     PTCLDY    68  65  90 S9G18     29.73R
STENNIS ARPT*  PTCLDY    64  61  88 S8        29.71R

$$

COASTAL OBSERVATIONS
LAKE AND NEARSHORE STATIONS

STATION/POSITION TIME  TEMP    WIND        PRES    WAVE
                       AIR SEA DIR/SP/G            HT/PER
                 (UTC) (F)     (DEG/KT/KT) (MB)    (FT/S)
PASCAGOULA       0200   66     190/ 15/ 18 1005.9
WAVELAND YACHT   0200   64     200/  9/ 14 1005.0
GRAND ISLE       0200   70 64  190/  6/ 12 1007.0
SOUTHWEST PASS   0200   69 74              1007.5
NEW CANAL        0200   68 56  210/  9/ 15 1006.0
SHELL BEACH      0200   67 54  170/ 10/ 12 1005.7

OFFSHORE STATIONS

STATION/POSITION TIME  TEMP    WIND        PRES    WAVE
                       AIR SEA DIR/SP/G            HT/PER
                 (UTC) (F)     (DEG/KT/KT) (MB)    (FT/S)
64 S DAUPHIN ISL 0107   72 72  200/ 16/ 19 1008.2    7/ 8

$$




USA.gov is the U.S. government's official web portal to all federal, state and local government web resources and services.